Location: ??????????
(44.2167°N, 135.5333°E)
Time: 14:20:27
(UTC+00:00)

ATLAS 3B R/B - Pass Details

Date: 15 June 2025
Orbit: 935 x 1258 km, 63.8° (Epoch: 15 July)

Event Time Altitude Azimuth Distance (km) Brightness Sun altitude
Rises 15:08:44 0° 323° (NW) 4,215 6.6 -22.4°
Reaches altitude 10° 15:11:42 10° 329° (NNW) 3,248 6.0 -22.4°
Maximum altitude 15:19:19 49° 43° (NE) 1,562 3.8 -22.3°
Drops below altitude 10° 15:26:40 10° 117° (ESE) 3,133 4.9 -22.1°
Sets 15:29:27 0° 123° (ESE) 4,055 5.5 -22.1°
